CAPE
0 0 0 0 0 0 0 0 0 0 0 0 0 0 0 0 0 0 0 0 0 0 0 0 0 0 0 0 0 0 0 0 0 8 15 1 1 0 0 0 0 0 0 0 0
0 0 0 0 0 0 0 0 0 0 0 0 0 0 0 0 0 0 0 0 0 0 0 0 0 0 0 0 0 0 0 0 0 0 0 0 5 10 8 0 0 0 0 0 0
0 0 0 0 0 0 0 0 0 0 0 0 0 0 0 0 0 0 0 0 0 0 0 0 0 0 0 0 0 0 0 0 0 0 0 0 0 2 0 0 0 0 0 0 0
0 0 0 0 0 0 0 0 0 0 0 0 0 0 0 0 0 0 0 0 0 0 0 0 0 0 0 0 0 0 0 0 0 0 0 0 0 0 0 0 0 0 0 0 0
0 0 0 0 0 0 0 0 0 0 0 0 0 0 0 0 0 0 0 0 0 0 0 0 0 0 0 0 0 0 0 0 0 0 0 0 0 0 0 0 0 0 0 0 0
0 2 1 0 0 0 0 0 0 0 0 0 0 0 0 0 0 0 0 0 0 0 0 0 0 0 0 0 0 0 0 0 0 0 0 0 0 0 0 0 0 0 0 0 0
3 0 1 1 0 0 0 0 0 0 0 0 0 0 0 0 0 0 0 0 0 0 0 0 0 0 0 0 0 0 0 0 0 0 0 0 0 0 0 0 0 0 0 0 0
4 6 1 1 0 0 0 0 0 0 0 0 0 0 0 0 0 0 0 0 0 0 0 0 0 0 0 0 0 0 0 0 0 0 0 0 0 0 0 0 0 0 0 0 0
4 1 3 2 0 0 0 0 0 0 0 0 0 0 0 0 0 0 0 0 0 0 0 0 0 0 0 0 0 0 0 0 1 4 0 0 0 0 1 0 0 0 0 0 0
0 3 4 4 2 0 0 0 0 0 0 0 0 0 0 0 0 0 0 0 0 0 0 0 0 0 0 0 0 0 2 6 1 39 13 2 0 1 0 0 0 0 0 0 0
8 5 5 2 0 0 0 0 0 0 0 0 0 0 0 0 0 0 0 0 0 0 0 0 0 0 0 0 0 0 1 12 20 36 26 19 0 0 11 0 0 0 0 0 0
4 13 11 3 0 0 0 0 0 0 0 0 0 0 0 0 0 0 0 0 0 0 0 0 0 0 0 0 0 0 0 0 0 12 30 10 0 0 0 0 0 0 0 0 0
0 0 6 11 3 0 0 0 0 0 0 0 0 0 0 0 0 0 0 0 0 0 0 0 0 0 0 0 0 0 0 0 0 19 21 2 0 0 0 0 0 0 0 0 0
0 0 0 10 0 0 0 0 0 0 0 0 0 0 0 0 0 0 0 0 0 0 0 0 0 0 0 0 0 0 0 0 0 2 1 2 0 0 0 0 0 0 0 0 17
0 0 0 8 0 0 0 0 0 0 0 0 0 0 0 0 0 0 0 0 0 0 0 0 0 0 0 0 0 0 0 0 0 0 0 0 0 0 0 1 0 0 0 2 33
0 0 0 6 2 0 11 0 0 0 0 0 0 0 0 0 0 0 0 0 0 0 0 0 0 0 0 0 0 0 0 0 0 0 0 0 0 0 0 0 0 0 1 63 45
17 2 0 15 21 21 9 1 0 0 0 0 0 0 0 0 0 0 0 0 0 0 0 0 0 0 0 0 0 0 0 0 0 0 0 1 0 0 0 0 0 0 40 110 43
8 15 0 7 20 5 12 8 0 0 0 0 0 0 0 0 0 0 0 0 0 0 0 0 0 0 0 0 0 0 0 0 0 1 13 5 0 0 0 0 0 0 62 194 43
10 21 1 15 18 8 32 10 0 0 0 0 0 0 0 0 0 0 0 0 0 0 0 0 0 0 0 0 0 0 0 0 0 0 0 15 2 0 0 0 1 10 231 258 40
31 3 0 5 33 23 9 0 0 0 0 0 0 0 0 0 0 0 0 0 0 0 0 0 0 0 0 0 0 0 0 0 0 0 0 6 6 14 0 27 226 251 285 196 3
10 5 2 12 56 36 1 2 0 0 0 0 0 0 0 0 0 0 0 0 0 0 0 0 0 0 0 0 0 0 0 0 0 0 0 11 8 3 0 53 312 293 274 58 0
5 2 49 38 35 0 0 0 0 0 0 0 0 0 0 0 3 0 0 0 0 0 0 0 0 0 0 0 0 0 0 0 0 0 0 7 68 0 0 48 182 257 187 1 0
12 23 58 139 20 11 1 1 15 13 0 0 0 0 0 0 0 5 0 0 0 0 0 0 0 0 18 0 0 0 0 0 0 0 5 1 0 0 0 14 79 232 146 0 0
2 8 19 43 3 11 24 24 28 49 0 0 0 0 0 0 0 0 1 0 0 0 0 0 0 0 0 0 0 0 0 0 0 0 0 0 11 2 0 5 97 182 195 1 0
25 12 17 17 6 3 0 10 25 19 29 9 1 0 0 0 0 0 0 2 0 0 0 0 0 0 0 0 0 0 0 0 0 0 0 0 0 10 26 16 66 186 246 89 0
6 14 11 3 10 32 32 0 15 18 34 23 11 0 0 0 0 0 0 0 1 0 0 0 0 0 0 0 0 0 0 0 0 0 0 0 0 4 12 13 70 197 228 168 18
16 8 4 1 30 5 2 16 5 20 1 16 5 0 0 0 0 0 0 0 1 0 0 0 0 0 0 0 0 0 0 0 0 0 0 0 0 3 4 6 20 77 118 154 125
CIN
0 0 0 0 0 0 0 0 0 0 0 0 0 0 0 0 0 0 0 0 0 0 0 0 0 0 0 0 0 0 0 0 0 -6 -8 -6 -4 -2 0 0 0 0 0 0 0
0 0 0 0 0 0 0 0 0 0 0 0 0 0 0 0 0 0 0 0 0 0 0 0 0 0 0 0 0 0 0 0 0 0 0 0 -4 -5 -7 0 0 0 0 0 0
0 0 0 0 0 0 0 0 0 0 0 0 0 0 0 0 0 0 0 0 0 0 0 0 0 0 0 0 0 0 0 0 0 0 0 -0 0 -6 0 0 0 0 0 0 0
0 0 0 0 0 0 0 0 0 0 0 0 0 0 0 0 0 0 0 0 0 0 0 0 0 0 0 0 0 0 0 0 0 0 0 0 0 0 0 0 0 0 0 0 0
-5 0 0 0 0 0 0 0 0 0 0 0 0 0 0 0 0 0 0 0 0 0 0 0 0 0 0 0 0 0 0 0 0 0 0 0 0 0 0 0 0 0 0 0 0
-5 -3 -3 0 0 0 0 0 0 0 0 0 0 0 0 0 0 0 0 0 0 0 0 0 0 0 0 0 0 0 0 0 0 0 0 0 0 0 0 0 0 0 0 0 0
-11 -13 -4 -4 0 0 0 0 0 0 0 0 0 0 0 0 0 0 0 0 0 0 0 0 0 0 0 0 0 0 0 0 0 0 0 0 0 0 0 0 0 0 0 0 0
-6 -10 -15 -10 0 0 0 0 0 0 0 0 0 0 0 0 0 0 0 0 0 0 0 0 0 0 0 0 0 0 0 0 0 0 0 0 0 0 0 0 0 0 0 0 0
-2 -4 -6 -14 0 0 0 0 0 0 0 0 0 0 0 0 0 0 0 0 0 0 0 0 0 0 0 0 0 0 0 0 -1 -5 0 0 0 0 -4 0 0 0 0 0 0
-1 -9 -3 -9 -8 0 0 0 0 0 0 0 0 0 0 0 0 0 0 0 0 0 0 0 0 0 0 0 0 0 -5 -7 -3 -9 -20 -6 0 -5 0 0 0 0 0 0 0
-1 -10 -11 -9 0 0 0 0 0 0 0 0 0 0 0 0 0 0 0 0 0 0 0 0 0 0 0 0 0 0 -4 -5 -6 -4 -8 -4 -0 0 -10 -0 0 0 0 0 0
-0 -3 -10 -13 0 0 0 0 0 0 0 0 0 0 0 0 0 0 0 0 0 0 0 0 0 0 0 0 0 0 0 0 0 -6 -4 -4 0 0 0 0 0 0 0 0 0
0 0 -9 -13 -18 0 0 0 0 0 0 0 0 0 0 0 0 0 0 0 0 0 0 0 0 0 0 0 0 0 0 0 0 -3 -6 -1 0 0 0 0 0 0 0 0 0
0 0 0 -9 0 0 0 0 0 0 0 0 0 0 0 0 0 0 0 0 0 0 0 0 0 0 0 0 0 0 0 0 0 -4 -4 -3 0 0 0 0 0 0 0 0 -140
0 0 0 -15 0 0 -1 0 0 0 0 0 0 0 0 0 0 0 0 0 0 0 0 0 0 0 0 0 0 0 0 0 -0 0 0 0 0 0 -0 -3 0 0 0 -84 -117
-5 0 0 -10 -1 0 -3 0 0 0 0 0 0 0 0 0 0 0 0 0 0 0 0 0 0 0 0 0 0 0 0 0 0 0 0 0 0 0 -1 0 0 0 -5 -52 -109
0 -4 0 -1 -0 -1 -15 -1 0 0 0 0 0 0 0 0 0 0 0 0 0 0 0 0 0 0 0 0 0 0 0 0 0 0 0 -2 0 0 0 0 0 0 -8 -41 -133
-8 -1 0 -3 -2 -5 -9 -2 0 0 0 0 0 0 0 0 0 0 0 0 0 0 0 0 0 0 0 0 0 0 0 0 0 -5 -5 -9 0 0 0 0 0 0 -23 -47 -145
-5 -1 -3 -1 -1 -3 -0 -1 0 0 0 0 0 0 0 0 0 0 0 0 0 0 0 0 0 0 0 0 0 0 0 0 0 0 0 -5 -3 -1 0 0 -1 -18 -23 -72 -169
-0 -0 -0 -3 -1 -2 -3 0 0 0 0 0 0 0 0 0 0 0 0 0 0 0 0 0 0 0 0 0 0 0 0 0 0 0 -3 -5 -4 -4 0 -3 -5 -12 -33 -105 -23
-3 0 -12 -2 -4 0 0 -1 0 0 0 0 0 0 -8 -6 0 0 0 0 0 0 0 0 0 0 0 0 0 0 0 0 0 0 -2 -4 -6 -21 0 -11 -4 -5 -31 -115 0
0 0 -5 -17 -0 0 -0 0 0 0 0 0 0 0 0 -16 -13 0 0 0 0 0 0 0 0 0 0 0 0 0 0 0 0 0 0 -4 -5 0 0 -7 -2 -4 -21 -39 0
-3 -2 -4 -1 0 0 -1 -1 -5 -3 0 0 0 0 0 0 0 -16 0 0 0 0 0 0 0 0 -8 0 0 0 0 0 0 0 -3 -2 0 0 0 -23 -5 -4 -17 0 0
-6 -1 -1 -0 -1 -1 -6 -4 -6 -4 -3 -2 0 0 0 0 0 0 -11 0 0 0 0 0 0 0 0 0 0 0 0 0 0 0 0 0 -5 -8 0 -3 -6 -4 -12 -9 0
-1 -2 -1 -1 -0 -1 -0 -2 -1 -4 -11 -5 -5 0 0 0 0 0 -3 -14 0 0 0 0 0 0 0 0 0 0 0 0 0 0 0 0 0 -3 -7 -8 -7 -3 -8 -30 0
-0 -0 -1 -1 -1 -2 -2 -0 -4 -11 -11 -5 -6 0 0 0 0 -14 0 -2 -5 0 0 0 0 0 0 0 0 0 0 0 0 0 0 0 0 -8 -2 -3 -4 -4 -3 -21 -54
-0 -0 -0 -0 -1 -1 -1 -3 -3 -11 -8 -8 -32 -3 0 0 0 0 0 0 -14 0 0 0 0 0 0 0 0 0 0 0 0 0 0 0 0 -5 -5 -5 -3 -15 -4 -11 -17
Wind_Speed
33 33 33 33 32 33 33 32 33 33 32 33 32 33 33 34 35 27 25 21 12 9 10 4 4 4 3 5 5 8 26 26 24 25 25 26 24 20 16 22 15 19 20 20 14
33 34 34 35 35 35 35 34 35 35 35 35 36 36 36 36 37 40 34 18 12 7 9 9 9 8 8 8 8 11 21 20 26 28 26 27 29 28 18 16 13 15 15 17 12
33 34 35 36 36 37 37 37 37 37 37 38 38 37 37 37 37 39 28 17 14 12 13 11 11 11 13 11 10 13 15 18 24 21 19 25 25 20 17 15 19 18 16 9 10
34 34 35 37 37 38 38 38 39 38 38 38 38 38 39 31 33 23 22 20 18 16 19 18 16 16 16 14 12 16 10 14 7 7 13 19 21 17 12 15 20 20 17 11 8
34 35 35 36 38 39 39 39 40 40 39 39 38 36 34 34 36 28 20 18 18 22 20 18 18 17 18 14 12 11 10 11 10 11 13 16 14 13 13 16 18 16 15 11 8
33 34 36 36 36 37 39 40 40 41 41 39 37 36 34 48 30 24 14 11 13 11 16 19 17 17 16 16 13 11 16 11 16 14 15 13 13 10 12 13 15 14 11 12 6
36 35 35 36 37 38 38 39 39 40 39 38 35 32 41 34 28 19 15 13 13 12 9 14 18 14 14 16 12 12 17 16 19 16 15 12 13 15 9 11 14 14 8 5 3
37 36 36 35 36 37 38 39 41 41 41 39 34 30 46 32 19 26 19 12 16 22 13 13 12 23 15 13 12 12 14 19 15 12 10 11 15 12 10 11 17 14 5 5 2
37 36 37 37 37 37 39 41 42 40 35 27 25 26 46 26 18 19 19 16 16 20 11 14 14 19 14 12 12 12 17 18 17 9 9 8 15 17 13 16 19 23 8 6 2
38 38 39 38 38 39 39 42 38 30 24 21 29 27 33 29 25 23 18 17 16 13 15 13 12 15 16 15 16 16 14 12 14 7 6 8 12 10 12 13 16 12 10 7 3
38 38 38 39 38 37 38 34 27 28 25 27 24 27 24 18 17 19 20 16 17 18 17 14 15 20 21 19 15 17 18 20 19 18 8 11 12 10 25 23 19 15 12 9 2
38 39 39 37 38 36 35 31 29 27 36 26 43 35 33 22 23 21 12 16 17 19 16 15 23 21 16 16 16 14 12 13 17 16 11 11 20 20 22 13 14 14 8 8 2
37 37 37 38 38 36 36 35 28 29 38 43 30 29 22 26 28 22 15 15 18 20 21 23 19 20 18 20 18 15 10 10 10 15 8 15 20 11 10 14 14 11 7 3 2
37 36 36 35 34 33 34 31 26 24 40 48 29 35 25 21 28 20 16 17 17 24 21 22 27 16 19 21 16 13 10 8 19 9 7 3 11 18 8 12 13 6 3 3 3
36 35 34 29 36 30 22 22 23 23 45 31 28 19 22 29 18 20 19 19 21 16 20 29 17 19 17 21 14 11 11 12 8 5 10 8 10 14 12 7 14 9 1 4 5
36 35 33 32 32 33 30 24 23 35 50 33 19 25 22 28 29 19 25 20 22 23 20 29 20 17 15 14 15 9 11 10 20 6 12 7 7 9 13 13 13 12 11 8 5
33 31 31 31 32 26 31 26 37 49 38 38 29 27 28 26 28 28 25 26 25 23 26 20 26 17 13 13 13 10 7 6 5 7 7 4 6 12 13 11 10 12 10 8 7
31 27 27 29 28 26 26 36 51 49 46 29 28 31 34 26 30 30 27 29 29 24 22 22 24 22 15 20 14 12 10 9 4 3 3 7 10 15 13 12 10 11 11 9 7
28 22 26 23 23 20 31 51 57 49 39 48 25 34 38 32 28 32 31 32 31 29 24 22 22 19 19 16 17 12 20 14 18 31 20 9 12 12 10 7 8 8 10 8 9
18 19 22 17 15 21 38 56 57 53 46 39 55 38 38 39 35 36 33 33 31 31 28 21 29 21 20 19 19 16 8 11 8 7 7 5 5 8 8 12 14 10 9 9 12
12 14 16 7 9 24 46 53 55 53 48 37 41 47 44 40 39 37 39 30 31 31 28 31 26 23 20 26 19 19 26 9 20 7 5 7 8 10 9 12 13 12 11 13 14
10 18 10 1 18 25 42 48 50 54 48 39 41 44 48 46 41 46 44 41 28 32 33 27 25 33 26 20 18 19 20 17 8 11 7 4 11 11 7 10 11 12 12 13 14
18 15 15 6 23 30 35 44 48 52 52 47 44 39 39 46 47 43 50 39 28 35 36 30 31 35 29 27 24 23 19 16 23 13 8 3 4 8 7 8 9 10 10 13 14
17 17 13 17 20 27 33 40 46 40 53 46 49 42 44 48 48 42 44 40 31 33 32 32 33 35 33 25 20 20 23 21 21 19 12 14 4 5 5 7 8 8 9 11 13
13 16 18 20 24 32 35 34 36 46 41 47 48 48 46 45 44 46 37 39 33 31 33 35 41 36 37 28 24 27 27 21 23 23 19 14 11 9 1 5 7 8 7 9 13
12 12 16 29 28 21 29 35 36 36 37 45 53 48 43 43 39 43 39 37 35 34 34 34 42 34 38 35 27 26 27 26 23 22 21 22 15 4 4 4 4 10 6 8 12
9 11 22 22 23 24 24 23 28 34 40 40 42 50 50 44 36 39 35 37 36 38 35 34 36 38 39 33 36 37 28 22 20 17 18 19 29 12 7 4 0 3 4 9 11
Wind_Direction
294 290 290 290 292 290 290 293 291 291 292 291 294 293 292 292 288 290 289 293 289 301 304 271 286 292 255 292 284 326 308 310 315 318 321 321 327 341 338 331 336 337 335 344 1
296 290 287 288 286 286 288 291 289 288 289 291 291 293 294 295 288 281 284 286 284 245 270 249 264 277 274 281 279 297 304 310 315 314 320 321 319 320 332 337 337 335 337 346 4
294 291 286 286 284 286 286 287 288 289 290 290 292 293 294 295 290 285 294 272 261 244 246 245 265 269 276 272 277 283 291 313 314 323 329 325 325 333 334 337 342 340 343 346 357
296 293 288 284 284 286 288 290 287 290 290 292 293 293 294 292 286 305 308 295 269 254 260 252 256 258 269 261 265 281 253 233 266 285 320 328 334 337 344 335 338 337 344 352 358
297 292 290 286 284 285 287 288 288 289 288 290 292 295 291 282 278 294 307 313 280 258 245 236 235 232 236 247 270 256 250 239 250 309 316 327 328 332 341 342 340 344 344 348 350
300 295 289 288 287 287 286 286 285 285 287 288 290 291 284 274 288 287 285 289 286 264 226 226 230 235 235 233 251 237 221 289 310 308 314 321 320 332 339 350 344 343 347 342 351
296 296 294 291 289 288 287 285 284 282 283 281 283 287 270 228 291 297 291 268 258 264 247 232 218 232 229 233 259 257 290 293 301 304 303 310 304 302 327 332 336 337 339 343 347
296 294 294 294 293 291 290 289 286 283 280 279 281 285 269 280 270 222 282 287 287 280 237 276 223 211 219 280 240 277 270 292 299 277 295 306 302 316 319 322 330 333 323 339 341
298 297 294 291 292 293 291 289 286 286 285 287 286 281 273 290 239 258 260 245 270 284 253 266 269 210 222 253 248 257 285 291 302 305 298 284 304 321 331 325 325 325 327 327 338
298 296 293 291 291 290 291 288 286 290 288 285 279 284 279 279 280 275 255 242 259 256 264 252 258 218 225 220 248 267 278 280 309 291 299 286 295 301 318 315 320 315 322 324 307
299 296 294 291 290 290 289 291 290 285 266 268 276 267 293 288 287 279 257 245 242 252 224 218 231 218 206 214 252 279 296 303 309 322 303 312 301 278 317 316 315 313 311 318 295
302 297 293 292 288 288 287 279 287 291 279 267 264 264 268 284 278 269 249 228 214 217 210 224 221 204 211 239 226 227 277 291 304 313 320 316 244 250 316 291 310 309 297 315 293
302 300 296 292 289 283 278 273 287 288 278 272 262 259 245 263 265 265 213 213 212 211 205 209 202 199 207 201 205 211 243 282 297 316 320 319 251 258 333 333 332 332 329 331 212
304 300 298 297 287 280 275 277 279 287 275 268 265 260 241 243 251 236 219 210 239 205 205 207 197 204 205 204 206 221 267 274 302 306 282 263 283 335 340 350 345 333 329 328 120
301 299 296 294 285 280 284 282 281 277 266 276 250 270 248 216 272 220 210 215 218 233 208 202 212 207 208 204 217 239 281 295 297 268 233 249 316 337 349 355 5 3 352 101 114
298 295 292 287 281 273 282 280 268 256 256 264 253 251 246 220 225 269 202 224 244 246 236 207 203 242 238 241 255 224 278 296 299 306 231 276 301 329 356 13 11 13 19 68 93
298 295 286 283 279 279 273 262 249 246 252 257 250 251 241 237 223 240 210 210 207 208 206 222 204 216 238 212 199 255 251 261 230 221 228 325 346 340 342 2 12 7 24 42 81
301 291 287 282 280 277 270 243 245 247 242 266 246 252 241 236 227 228 221 221 213 216 245 226 218 209 206 200 200 206 208 196 287 280 285 12 352 359 12 16 18 9 3 54 85
307 294 284 281 278 273 256 240 238 245 251 249 256 250 245 234 242 225 224 217 208 205 232 219 232 205 225 212 215 228 199 199 209 255 311 332 343 337 5 33 78 60 19 51 97
314 299 286 282 272 264 252 245 245 247 255 259 248 252 247 237 237 221 226 228 221 210 229 251 251 244 208 242 222 218 213 201 221 250 284 305 353 10 52 39 38 54 68 73 106
329 320 309 268 268 260 249 247 246 246 250 267 257 250 247 242 235 235 232 245 222 212 224 243 249 234 222 228 209 204 198 224 279 201 303 336 358 24 30 34 42 70 87 104 113
348 327 340 279 266 268 255 248 248 245 248 261 259 255 249 243 239 238 236 236 235 228 218 216 250 244 230 224 231 218 205 206 226 193 271 234 348 15 48 46 62 73 86 108 118
328 327 325 309 275 267 265 254 250 247 246 251 251 256 256 249 247 239 240 238 241 228 220 221 240 240 236 241 237 237 221 215 196 266 206 228 214 328 66 60 66 67 93 108 121
339 331 323 296 284 275 268 258 248 256 245 250 250 254 254 246 245 246 236 237 243 236 225 225 236 236 234 227 228 228 203 196 195 201 201 195 189 79 96 106 97 70 98 120 126
1 344 322 303 284 269 262 265 262 249 247 248 246 246 247 245 245 242 240 235 235 239 228 223 234 238 244 247 237 245 245 219 205 197 202 191 197 190 113 115 119 106 92 126 140
20 17 0 278 275 289 264 260 261 259 249 245 241 241 247 243 246 248 245 239 231 233 222 225 232 238 242 244 241 242 243 246 207 203 203 198 195 277 291 146 90 119 87 131 150
39 35 286 265 271 271 273 266 274 266 254 248 246 239 241 243 262 256 261 249 251 230 219 221 228 234 242 241 244 245 238 230 239 228 205 204 198 281 303 174 238 95 86 141 154